This is the latest recevied weather packets stored in our database for station/object 7M1JBF-11. If no packets are shown the sender has not sent any weather packets the latest 10 day(s).
| Time | Temp. | Humidity | Pressure | Rain* | Wind** | Luminosity | Snow |
|---|---|---|---|---|---|---|---|
| 1777823555 | 19.44° C | 100% | 1002.9 hPa | 0.25 mm | - | - | - |
| 1777822954 | 19.44° C | 100% | 1002.9 hPa | 0 mm | - | - | - |
| 1777822353 | 19.44° C | 100% | 1003.3 hPa | 0 mm | - | - | - |
| 1777821751 | 19.44° C | 100% | 1003.4 hPa | 0 mm | - | - | - |
| 1777821150 | 19.44° C | 100% | 1003.2 hPa | 0 mm | - | - | - |
| 1777820548 | 19.44° C | 100% | 1003.5 hPa | 2.03 mm | - | - | - |
| 1777819947 | 19.44° C | 100% | 1003.7 hPa | 2.03 mm | - | - | - |
| 1777819346 | 19.44° C | 100% | 1003.4 hPa | 2.03 mm | - | - | - |
| 1777818744 | 19.44° C | 100% | 1003.6 hPa | 2.03 mm | - | - | - |
| 1777818143 | 19.44° C | 100% | 1003.4 hPa | 2.03 mm | - | - | - |
| 1777817542 | 19.44° C | 100% | 1003.8 hPa | 2.03 mm | - | - | - |
| 1777816940 | 19.44° C | 100% | 1003.5 hPa | 2.03 mm | - | - | - |
| 1777816339 | 20° C | 100% | 1003.4 hPa | 1.52 mm | - | - | - |
| 1777815737 | 20° C | 100% | 1003.7 hPa | 1.02 mm | - | - | - |
| 1777812732 | 20° C | 100% | 1004.5 hPa | 0.76 mm | - | - | - |
| 1777812130 | 20° C | 100% | 1004.2 hPa | 0.25 mm | - | - | - |
| 1777810927 | 20° C | 100% | 1005.1 hPa | 0.25 mm | - | - | - |
| 1777810325 | 20° C | 100% | 1005.4 hPa | 0.25 mm | - | - | - |
| 1777809724 | 20° C | 100% | 1005.4 hPa | 0 mm | - | - | - |
| 1777808521 | 20° C | 100% | 1005.3 hPa | 0 mm | - | - | - |
| 1777807920 | 20° C | 100% | 1005.5 hPa | 0 mm | - | - | - |
| 1777807318 | 20° C | 100% | 1005.8 hPa | 0 mm | - | - | - |
| 1777806717 | 20° C | 100% | 1005.9 hPa | 0 mm | - | - | - |
| 1777806116 | 20° C | 100% | 1005.5 hPa | 0 mm | - | - | - |
| 1777804312 | 20.56° C | 100% | 1005.6 hPa | 0 mm | - | - | - |
* Rain since midnight (hover to see other rain measurements)
** Current wind speed in m/s (hover to see current wind gust speed)